TimeCST,TemperatureF,Dew PointF,Humidity,Sea Level PressureIn,VisibilityMPH,Wind Direction,Wind SpeedMPH,Gust SpeedMPH,PrecipitationIn,Events,Conditions,WindDirDegrees,DateUTC
12:53 AM,50.0,30.9,48,30.30,10.0,East,6.9,-,N/A,,Overcast,80,2013-01-27 06:53:00
1:53 AM,48.9,30.9,50,30.30,10.0,ENE,3.5,-,N/A,,Scattered Clouds,70,2013-01-27 07:53:00
2:53 AM,48.9,30.9,50,30.31,10.0,ENE,6.9,-,N/A,,Overcast,70,2013-01-27 08:53:00
3:53 AM,48.9,32.0,52,30.29,10.0,ENE,5.8,-,N/A,,Overcast,70,2013-01-27 09:53:00
4:53 AM,48.0,32.0,54,30.31,10.0,East,5.8,-,N/A,,Overcast,80,2013-01-27 10:53:00
5:53 AM,48.0,33.1,56,30.33,10.0,East,4.6,-,N/A,,Overcast,80,2013-01-27 11:53:00
6:53 AM,48.0,32.0,54,30.34,10.0,East,6.9,-,N/A,,Overcast,80,2013-01-27 12:53:00
7:53 AM,48.0,32.0,54,30.35,10.0,Variable,3.5,-,N/A,,Overcast,0,2013-01-27 13:53:00
8:53 AM,48.9,32.0,52,30.38,10.0,East,5.8,-,N/A,,Overcast,100,2013-01-27 14:53:00
9:53 AM,51.1,30.9,46,30.38,10.0,Variable,6.9,-,N/A,,Overcast,0,2013-01-27 15:53:00
10:53 AM,53.1,30.0,41,30.37,10.0,East,8.1,-,N/A,,Overcast,100,2013-01-27 16:53:00
11:53 AM,54.0,30.9,41,30.35,10.0,East,4.6,-,N/A,,Overcast,100,2013-01-27 17:53:00
12:53 PM,57.9,30.9,36,30.32,10.0,ESE,6.9,-,N/A,,Overcast,110,2013-01-27 18:53:00
1:53 PM,60.1,30.0,32,30.31,10.0,SE,8.1,-,N/A,,Overcast,130,2013-01-27 19:53:00
2:21 PM,59.0,30.2,34,30.31,10.0,East,6.9,-,N/A,,Overcast,100,2013-01-27 20:21:00
2:35 PM,59.0,30.2,34,30.31,10.0,SE,8.1,-,N/A,,Overcast,130,2013-01-27 20:35:00
2:53 PM,59.0,30.9,35,30.31,10.0,East,5.8,-,N/A,,Overcast,90,2013-01-27 20:53:00
3:00 PM,59.0,32.0,36,30.31,10.0,ESE,4.6,-,N/A,,Overcast,120,2013-01-27 21:00:00
3:11 PM,60.8,30.2,31,30.31,10.0,ESE,8.1,-,N/A,,Overcast,120,2013-01-27 21:11:00
3:53 PM,60.1,32.0,35,30.32,10.0,East,8.1,-,N/A,,Overcast,80,2013-01-27 21:53:00
4:53 PM,59.0,33.1,38,30.31,10.0,East,5.8,-,N/A,,Clear,90,2013-01-27 22:53:00
5:53 PM,57.0,34.0,42,30.31,10.0,East,6.9,-,N/A,,Clear,100,2013-01-27 23:53:00
6:53 PM,54.0,37.0,53,30.32,10.0,NE,3.5,-,N/A,,Clear,50,2013-01-28 00:53:00
7:53 PM,55.0,37.0,51,30.32,10.0,ESE,8.1,-,N/A,,Clear,110,2013-01-28 01:53:00
8:53 PM,54.0,39.0,57,30.31,10.0,ESE,6.9,-,N/A,,Clear,110,2013-01-28 02:53:00
9:53 PM,54.0,39.0,57,30.32,10.0,ESE,8.1,-,N/A,,Clear,120,2013-01-28 03:53:00
10:53 PM,54.0,37.9,55,30.32,10.0,ESE,11.5,-,N/A,,Partly Cloudy,120,2013-01-28 04:53:00
11:53 PM,53.1,37.0,55,30.34,10.0,ESE,8.1,-,N/A,,Mostly Cloudy,110,2013-01-28 05:53:00